Location: Kershaw
(34.5481°N, 80.5823°W)
Time: 16:11:19
(UTC+00:00)

Transit 2A - Pass Details

Date: 10 October 2022
Orbit: 598 x 959 km, 66.7° (Epoch: 06 December)

Event Time Altitude Azimuth Distance (km) Brightness Sun altitude
Rises 10:21:04 0° 352° (N) 3,003 9.0 -13.7°
Reaches altitude 10° 10:24:12 10° 15° (NNE) 2,152 8.5 -13.1°
Maximum altitude 10:27:09 16° 53° (NE) 1,848 8.8 -12.5°
Drops below altitude 10° 10:30:16 10° 90° (E) 2,285 10.0 -11.8°
Sets 10:33:44 0° 111° (ESE) 3,293 10.7 -11.1°
